Temperature
14 15 15 15 15 15 15 15 15 15 15 15 15 15 15 15 15 15 15 15 15 15 15 15 15 15 15 15 15 15 15 15 15 15 15 15 15 15 14 15 15 14 14
14 15 15 14 15 15 15 15 15 15 15 15 15 15 15 15 15 15 15 15 15 15 15 15 15 15 15 15 15 15 15 15 15 15 15 15 15 15 14 14 14 14 14
14 14 14 14 14 14 14 15 15 15 15 15 15 15 15 15 15 15 15 15 15 15 15 15 15 15 15 15 15 15 15 14 14 14 14 14 14 14 14 14 14 14 14
14 14 14 14 14 14 14 14 14 15 15 15 15 15 15 15 15 15 15 15 15 15 15 15 15 15 15 15 15 14 14 14 14 14 14 14 14 14 14 14 14 14 14
13 14 14 14 14 14 14 14 14 14 14 14 14 14 14 14 14 14 15 15 15 15 15 15 15 15 15 15 14 14 14 14 14 14 14 14 14 14 14 14 14 14 14
13 13 13 13 14 14 14 14 14 14 14 14 14 14 14 14 14 14 14 14 15 14 14 14 15 15 15 14 14 14 14 13 14 14 13 13 13 14 14 14 14 14 14
12 13 13 13 13 13 13 13 14 14 14 14 14 14 14 14 14 14 14 14 14 14 14 14 14 14 14 14 14 14 13 13 14 13 13 13 13 13 13 13 13 14 14
12 12 13 13 13 13 13 13 13 13 13 13 13 13 14 14 14 14 14 14 14 14 14 14 14 14 14 14 14 14 13 13 13 13 13 13 13 13 13 13 13 13 13
12 12 12 12 12 12 13 13 13 13 13 13 13 13 13 13 13 13 14 14 14 14 14 14 14 14 14 14 14 14 13 13 13 13 13 13 13 13 13 13 13 13 13
11 12 12 12 12 12 12 12 12 12 12 12 13 13 13 13 13 13 13 13 13 13 14 14 14 14 14 14 14 13 13 13 13 13 13 13 13 13 13 13 13 13 13
11 11 11 11 11 11 12 12 12 12 12 12 12 12 12 12 12 13 13 13 13 13 13 13 13 13 13 13 13 13 13 13 13 13 13 13 13 13 13 13 13 13 13
10 10 11 11 11 11 11 11 11 11 12 12 12 12 12 12 12 12 12 12 12 13 13 13 13 13 13 13 13 13 13 13 13 13 13 13 13 13 13 13 13 13 13
9 9 10 10 10 11 11 11 11 11 11 11 11 11 11 11 12 12 12 12 12 12 12 12 12 12 12 12 13 13 12 13 13 13 12 12 13 12 13 13 13 13 13
8 9 9 9 10 10 10 10 10 10 10 10 11 11 11 11 11 11 12 11 12 12 12 12 12 12 12 12 12 12 12 12 12 13 12 12 12 12 12 13 13 12 12
8 8 9 9 9 9 9 10 10 10 10 10 10 10 10 11 11 11 11 11 11 11 11 11 11 11 11 12 12 12 12 12 12 12 12 12 12 12 12 12 12 12 12
7 8 8 8 8 9 9 9 9 9 9 9 10 10 10 10 10 10 10 10 10 11 11 11 11 11 11 11 11 12 12 12 12 12 12 12 12 12 12 12 12 12 12
6 7 7 8 8 8 8 8 9 9 9 9 9 9 9 9 10 10 10 10 10 10 10 10 11 11 11 11 11 11 11 11 12 12 12 12 12 12 12 12 12 12 12
6 6 6 7 7 7 8 8 8 8 8 9 9 9 9 9 9 9 9 10 10 10 10 10 10 11 11 11 11 11 11 11 11 11 11 11 11 11 11 11 11 11 11
5 6 6 6 6 7 7 7 7 8 8 8 8 8 9 9 9 9 9 9 9 9 10 10 10 10 10 10 11 11 11 11 11 11 11 11 11 11 11 11 11 11 11
5 5 5 5 6 6 6 7 7 7 7 8 8 8 8 8 8 9 9 9 9 9 9 9 9 10 10 10 10 10 10 10 10 10 10 10 10 11 11 11 11 11 11
4 5 5 5 5 5 6 6 6 7 7 7 7 7 8 8 8 8 8 8 8 8 9 9 9 9 9 9 10 10 10 10 10 10 10 10 10 10 10 10 10 11 11
4 4 4 5 5 5 5 5 6 6 6 7 7 7 7 7 7 8 8 8 8 8 8 8 9 9 9 9 9 9 9 9 9 10 10 10 10 10 10 10 10 10 10
3 3 4 4 4 4 5 5 5 5 6 6 6 6 7 7 7 7 7 8 8 8 8 8 8 9 8 9 9 9 9 9 9 9 10 10 10 10 10 10 10 10 10
3 3 3 4 4 4 4 4 4 4 5 5 5 6 6 6 6 7 7 7 7 7 7 8 8 8 8 8 9 9 9 9 9 9 9 9 9 9 9 9 9 10 10
2 2 3 3 3 3 4 4 4 4 4 5 5 5 5 6 6 6 6 7 7 7 7 7 8 8 8 8 8 9 9 9 9 9 9 9 9 9 9 9 9 9 9
2 2 2 2 2 3 3 3 3 4 4 4 4 5 5 5 5 5 6 6 6 6 7 7 7 7 7 8 8 8 8 9 9 9 9 9 9 9 9 9 9 9 9
Wind_Speed
4 4 4 4 6 7 8 8 9 9 10 10 10 10 11 11 11 12 12 13 13 14 14 15 15 15 16 16 17 17 17 18 18 19 18 18 18 18 17 17 17 17 19
4 6 6 6 6 7 8 9 9 9 9 9 9 10 11 11 11 11 12 12 13 13 14 14 15 15 15 15 15 15 15 16 16 17 18 17 17 17 18 17 17 17 19
6 7 6 6 6 7 8 8 9 9 9 8 9 9 10 10 11 11 11 12 12 13 13 13 14 14 14 14 14 13 13 12 12 14 14 14 15 17 17 17 18 18 18
7 7 6 6 7 8 8 8 8 8 8 8 8 8 9 10 11 11 11 11 12 12 13 13 13 13 13 13 12 12 11 11 11 12 12 13 14 16 16 17 17 17 17
6 7 7 8 7 8 8 8 8 8 8 8 8 8 9 10 10 11 12 12 11 12 12 12 12 12 12 12 11 10 9 10 12 13 13 14 14 15 16 16 16 16 17
6 7 8 8 8 8 8 8 8 7 7 7 8 8 8 9 10 11 11 12 11 11 11 12 12 12 11 11 10 9 9 10 11 12 12 13 13 14 15 15 15 16 16
6 7 7 7 7 7 7 8 8 7 7 7 7 8 8 8 9 10 11 11 11 10 10 10 11 11 11 10 9 8 9 10 11 12 12 13 13 14 14 15 15 15 15
6 7 7 6 6 7 7 7 7 7 7 7 7 8 8 8 9 9 10 10 10 10 10 10 10 11 10 9 8 7 9 10 11 11 12 12 13 13 13 14 14 14 15
8 8 7 6 5 5 6 6 6 7 6 6 7 7 8 8 8 8 9 9 9 9 9 10 10 10 9 8 7 7 9 10 11 10 10 11 12 13 12 13 13 14 14
7 7 6 5 4 4 4 5 5 6 6 6 6 7 8 8 8 8 8 8 9 8 8 9 9 9 8 7 6 5 6 8 11 10 9 10 12 12 12 12 12 13 13
6 5 6 6 5 4 3 4 5 6 6 6 6 6 6 5 6 7 7 8 8 8 8 9 9 8 7 6 4 4 5 9 10 9 9 10 12 12 11 11 11 12 13
5 4 4 5 5 4 2 3 3 4 4 4 4 4 3 4 5 6 8 8 8 7 7 8 8 7 6 4 2 2 5 10 9 9 8 10 10 11 11 11 11 11 11
4 4 3 5 5 5 4 2 2 2 2 3 3 3 3 4 5 6 6 6 7 6 5 6 6 5 4 3 3 3 5 8 9 8 8 9 9 9 10 10 10 10 11
4 4 3 5 5 5 4 2 2 2 1 2 2 3 3 3 2 3 4 4 5 4 4 5 3 4 5 5 4 4 6 8 9 9 8 9 9 9 9 9 9 10 10
4 4 4 4 4 4 4 3 2 2 2 1 1 2 3 2 1 2 2 3 3 4 4 3 3 3 3 3 4 5 5 8 10 9 8 9 9 8 8 9 9 9 9
4 4 4 4 4 4 3 3 2 2 1 1 0 1 2 2 1 1 2 2 2 3 4 3 3 3 3 3 3 4 6 7 9 9 8 8 9 8 8 8 8 8 8
4 4 3 4 4 4 3 3 3 2 1 1 1 0 1 2 2 1 1 1 2 3 3 3 4 4 3 2 3 4 5 6 8 9 9 8 8 8 8 7 7 8 8
3 4 3 4 4 3 4 3 3 2 2 1 0 0 1 1 2 1 1 1 2 2 2 1 2 3 2 2 2 2 3 4 6 7 8 8 8 7 7 7 7 7 7
3 3 3 3 3 3 4 3 3 2 2 1 1 1 0 0 1 0 1 1 2 1 1 1 1 3 3 2 3 2 2 2 3 5 6 7 7 8 7 7 7 7 6
2 2 3 3 3 2 2 2 2 1 1 1 1 1 0 1 1 0 1 1 2 1 1 2 2 2 3 3 3 3 2 2 3 3 4 5 6 7 7 7 6 6 6
3 3 3 2 2 1 1 1 1 1 1 1 1 1 1 1 1 1 0 1 1 2 2 2 2 3 3 3 3 2 2 2 2 2 3 4 4 5 6 6 6 6 5
3 3 3 3 3 2 1 1 2 2 2 2 1 1 1 2 2 2 1 1 1 2 3 2 2 2 3 4 3 3 2 0 1 1 2 2 3 5 5 5 5 5 5
4 3 4 3 3 2 1 1 1 1 1 1 2 2 2 3 3 2 2 2 2 2 3 3 3 2 4 3 2 3 3 3 2 1 1 2 2 2 3 4 4 5 5
4 4 4 4 4 2 1 1 2 2 3 3 3 3 2 3 3 3 3 3 2 2 4 4 3 2 4 4 3 2 1 2 3 2 1 1 2 2 2 3 4 4 5
4 4 4 4 4 3 1 2 2 3 3 2 2 3 3 2 2 2 2 2 2 2 3 4 4 4 4 4 3 2 1 1 1 3 3 3 2 2 2 3 4 4 5
4 4 4 4 4 3 2 2 2 3 3 3 3 3 3 3 2 3 2 2 3 3 4 4 4 5 5 5 3 3 3 3 3 3 4 4 3 2 2 2 3 5 5
Wind_Direction
89 81 102 90 85 84 87 85 85 86 87 85 82 79 79 78 82 84 86 86 86 88 87 86 84 82 80 78 78 78 80 81 81 78 76 75 75 76 77 77 77 77 79
102 103 106 100 95 93 90 88 87 84 86 87 85 81 83 81 84 85 85 86 87 88 88 87 84 83 82 81 81 81 81 84 86 85 80 76 76 78 76 76 79 81 79
93 104 104 101 100 103 97 92 87 84 83 83 85 85 86 86 84 85 84 85 87 88 88 87 86 85 84 84 84 82 81 82 85 87 83 83 82 81 81 79 80 82 81
85 100 104 97 106 105 102 97 94 88 84 80 83 87 89 89 87 83 83 85 85 87 88 89 88 88 88 85 83 80 74 72 76 76 78 79 83 84 83 82 82 82 82
81 97 99 97 106 104 102 102 100 94 88 82 80 85 88 89 88 85 81 83 86 86 87 88 90 90 89 87 82 75 66 66 69 73 76 79 80 84 85 84 85 84 83
82 91 105 98 97 99 100 104 103 100 94 88 81 82 89 89 89 86 84 80 84 88 89 89 90 93 92 88 81 68 57 63 69 70 73 82 83 86 88 87 87 86 85
79 81 102 101 94 95 100 103 104 103 98 92 87 85 92 94 93 91 88 85 82 90 93 94 92 93 94 90 79 64 57 62 78 71 68 78 86 88 90 90 89 88 86
63 71 88 86 92 95 99 103 104 103 102 96 89 88 90 95 98 99 94 92 88 92 96 94 95 92 95 93 80 64 55 66 81 80 74 80 89 89 89 90 90 89 88
55 58 63 69 80 87 96 103 106 105 101 99 96 93 89 97 102 104 101 97 94 92 99 96 95 95 93 92 82 68 61 64 77 81 81 83 91 91 91 92 91 90 88
54 52 43 47 62 76 93 100 110 108 102 101 102 99 96 101 107 106 107 102 98 95 102 103 100 95 92 91 87 71 61 68 78 78 81 89 96 96 94 94 94 94 92
45 48 35 24 31 45 95 107 109 118 112 107 105 110 108 111 118 112 112 105 103 100 108 114 111 105 96 90 84 66 59 82 79 81 83 95 101 99 97 95 97 97 96
23 31 29 19 16 25 58 113 119 128 129 115 104 108 112 108 120 114 118 112 110 110 114 122 126 123 107 99 70 57 75 89 85 84 85 98 101 102 101 99 100 100 100
9 19 18 10 14 15 14 57 85 101 129 124 118 107 97 95 109 114 118 116 118 121 121 131 142 148 140 128 91 71 81 92 91 90 89 99 102 105 105 104 103 104 104
6 5 11 7 11 13 8 14 39 42 44 96 147 132 98 83 96 120 132 145 152 150 146 159 174 154 131 138 129 103 93 99 101 99 93 97 102 107 109 109 107 109 108
359 1 350 5 10 9 6 1 35 24 359 68 145 156 121 88 82 123 135 143 161 155 158 176 148 122 116 115 117 111 104 107 110 109 102 99 103 105 110 110 109 112 111
354 351 346 355 4 6 13 0 7 25 10 35 86 151 141 143 106 132 142 151 156 156 170 169 132 112 107 102 97 97 101 110 117 118 116 108 105 108 111 113 110 107 109
342 339 342 336 360 3 2 360 353 23 42 33 10 47 134 152 141 133 151 160 161 162 167 150 129 114 111 99 85 85 96 112 118 120 123 122 117 111 112 115 114 113 107
339 341 335 338 345 351 352 345 350 356 25 49 86 86 26 93 155 143 159 161 166 161 145 127 141 123 114 106 90 77 77 96 110 120 123 126 127 123 122 121 121 121 117
341 348 330 336 332 344 346 338 350 339 0 45 112 90 346 94 151 79 158 163 164 154 144 157 143 138 137 120 106 90 82 91 109 120 126 128 130 131 131 131 128 128 125
340 344 332 338 338 347 346 344 350 327 331 359 79 140 193 194 196 272 182 175 159 164 183 159 149 137 140 134 113 92 74 85 99 114 125 124 128 136 139 139 137 137 139
344 346 338 336 332 338 343 335 271 264 248 231 337 197 168 205 223 261 215 192 179 189 191 179 155 149 146 131 111 97 49 61 89 115 116 124 131 133 137 142 148 146 151
327 335 333 325 308 292 327 280 257 252 242 239 290 281 223 222 222 227 173 209 212 192 185 188 156 159 170 162 150 142 145 108 354 84 128 145 157 149 147 145 147 153 158
349 338 321 314 310 298 341 316 290 263 244 229 218 215 268 239 224 227 205 211 220 206 197 201 185 187 185 195 188 163 162 183 177 213 172 162 162 157 164 162 158 157 153
341 342 332 330 320 298 310 271 256 243 240 241 211 217 251 249 235 228 209 216 214 217 203 204 201 207 189 195 212 234 217 160 153 167 209 196 174 167 173 168 166 158 161
341 340 329 333 322 329 319 263 258 259 252 238 219 219 218 242 239 245 233 226 221 225 216 208 210 213 208 203 201 212 233 191 158 165 189 193 200 203 188 174 163 163 163
346 345 335 330 318 324 323 289 266 278 284 260 229 218 222 218 217 238 248 242 234 232 222 216 212 219 220 212 210 209 198 192 195 182 188 186 189 212 204 177 170 171 167
Height
1526 1527 1528 1529 1530 1531 1532 1533 1534 1535 1535 1536 1537 1538 1538 1539 1540 1540 1541 1542 1543 1543 1544 1544 1545 1545 1545 1546 1546 1546 1547 1547 1547 1547 1548 1548 1548 1548 1548 1548 1548 1548 1548
1525 1526 1528 1529 1530 1531 1532 1533 1534 1535 1536 1537 1538 1539 1540 1540 1541 1542 1543 1543 1544 1545 1545 1546 1546 1547 1547 1548 1548 1549 1549 1549 1550 1550 1550 1550 1550 1550 1550 1551 1551 1551 1551
1526 1526 1528 1529 1531 1532 1533 1534 1535 1536 1537 1538 1539 1540 1541 1541 1542 1543 1544 1545 1545 1546 1547 1547 1548 1548 1549 1550 1550 1551 1551 1552 1552 1552 1552 1552 1552 1553 1553 1553 1553 1553 1553
1526 1527 1528 1529 1531 1532 1533 1534 1535 1537 1537 1538 1539 1540 1541 1542 1543 1544 1545 1546 1546 1547 1548 1549 1549 1550 1551 1551 1552 1553 1554 1554 1555 1555 1555 1555 1555 1555 1555 1555 1555 1555 1555
1527 1527 1528 1530 1531 1532 1533 1535 1536 1537 1538 1539 1540 1541 1542 1543 1544 1545 1546 1546 1547 1548 1549 1550 1550 1551 1552 1553 1554 1555 1555 1556 1556 1557 1557 1557 1557 1557 1557 1557 1557 1557 1557
1527 1527 1528 1530 1531 1532 1533 1535 1536 1537 1538 1539 1540 1541 1542 1543 1544 1545 1546 1547 1548 1549 1550 1551 1551 1552 1553 1554 1555 1556 1557 1558 1558 1558 1558 1559 1559 1559 1559 1559 1559 1559 1559
1527 1527 1529 1530 1531 1532 1534 1535 1536 1537 1538 1539 1540 1541 1542 1544 1544 1545 1546 1547 1548 1549 1550 1551 1552 1553 1554 1555 1556 1557 1558 1559 1559 1559 1560 1560 1560 1561 1561 1561 1561 1561 1561
1527 1527 1528 1530 1531 1532 1533 1535 1536 1537 1538 1539 1540 1541 1542 1543 1545 1546 1546 1547 1548 1550 1551 1552 1553 1554 1555 1556 1557 1558 1559 1560 1560 1561 1561 1561 1562 1562 1562 1562 1563 1563 1563
1527 1527 1528 1529 1531 1532 1533 1534 1535 1537 1538 1539 1540 1541 1542 1543 1544 1545 1546 1548 1549 1550 1551 1552 1553 1555 1556 1557 1558 1559 1560 1561 1561 1561 1562 1562 1563 1563 1564 1564 1564 1564 1564
1526 1526 1527 1529 1530 1531 1532 1534 1535 1536 1537 1538 1539 1541 1542 1543 1544 1545 1546 1547 1549 1550 1551 1552 1554 1555 1556 1558 1559 1560 1561 1561 1562 1562 1563 1563 1564 1564 1565 1565 1565 1566 1566
1526 1526 1527 1528 1529 1530 1532 1533 1534 1535 1537 1538 1539 1540 1541 1542 1543 1544 1546 1547 1548 1549 1551 1552 1554 1555 1556 1558 1559 1560 1561 1562 1562 1563 1563 1564 1565 1565 1566 1566 1567 1567 1567
1524 1525 1526 1527 1528 1529 1530 1532 1533 1534 1535 1537 1538 1539 1540 1541 1542 1543 1545 1546 1548 1549 1550 1552 1553 1555 1556 1558 1559 1560 1561 1562 1562 1563 1564 1564 1565 1566 1566 1567 1567 1568 1568
1523 1524 1525 1526 1527 1528 1529 1530 1531 1532 1534 1535 1537 1538 1539 1540 1541 1542 1544 1545 1547 1548 1550 1551 1553 1554 1556 1557 1559 1560 1561 1562 1562 1563 1564 1565 1566 1566 1567 1568 1568 1569 1569
1522 1523 1523 1524 1525 1526 1527 1528 1530 1531 1532 1533 1535 1537 1538 1539 1540 1541 1543 1544 1546 1547 1549 1551 1552 1554 1555 1557 1558 1560 1561 1561 1562 1563 1564 1565 1565 1566 1567 1568 1569 1569 1570
1521 1521 1522 1523 1523 1525 1526 1527 1528 1529 1530 1532 1533 1535 1536 1537 1538 1540 1541 1543 1545 1546 1548 1550 1551 1553 1554 1556 1558 1559 1560 1561 1562 1563 1563 1564 1565 1566 1567 1568 1569 1570 1570
1519 1519 1520 1521 1522 1523 1523 1525 1526 1527 1529 1530 1532 1533 1535 1536 1537 1538 1540 1541 1543 1545 1547 1548 1550 1551 1553 1555 1557 1558 1559 1560 1561 1562 1563 1564 1565 1566 1567 1568 1569 1570 1571
1517 1517 1518 1518 1519 1520 1521 1522 1524 1525 1526 1528 1529 1531 1533 1534 1535 1536 1538 1540 1541 1543 1545 1547 1549 1550 1552 1554 1555 1557 1558 1559 1560 1561 1562 1563 1564 1566 1567 1568 1569 1570 1570
1515 1515 1516 1516 1517 1518 1519 1520 1521 1523 1524 1525 1527 1529 1530 1532 1533 1535 1536 1538 1540 1542 1543 1545 1547 1548 1550 1552 1554 1556 1557 1559 1560 1561 1562 1563 1564 1565 1566 1567 1568 1569 1570
1513 1513 1513 1514 1515 1515 1517 1518 1519 1520 1522 1523 1525 1526 1528 1529 1531 1532 1534 1536 1538 1540 1541 1543 1545 1547 1549 1550 1552 1554 1556 1558 1559 1560 1561 1562 1563 1564 1565 1566 1567 1568 1569
1511 1511 1511 1512 1512 1513 1514 1515 1516 1517 1519 1520 1522 1523 1525 1527 1528 1530 1532 1533 1535 1537 1539 1541 1543 1545 1547 1548 1550 1552 1554 1556 1558 1558 1560 1561 1562 1563 1564 1565 1566 1567 1568
1508 1508 1509 1509 1509 1510 1511 1512 1513 1514 1516 1517 1519 1520 1522 1524 1525 1527 1529 1530 1532 1534 1536 1538 1541 1543 1544 1546 1548 1550 1553 1554 1556 1557 1558 1559 1561 1562 1563 1564 1565 1566 1567
1506 1506 1506 1506 1507 1507 1507 1509 1510 1511 1513 1514 1516 1517 1519 1521 1522 1524 1525 1527 1529 1531 1533 1536 1538 1540 1542 1544 1546 1547 1550 1553 1553 1555 1556 1557 1559 1560 1561 1562 1563 1564 1565
1503 1503 1503 1504 1503 1503 1504 1506 1508 1509 1510 1511 1512 1513 1516 1517 1519 1520 1522 1524 1526 1528 1529 1532 1534 1536 1538 1541 1543 1545 1547 1548 1550 1552 1553 1555 1556 1558 1559 1560 1561 1562 1563
1501 1501 1501 1500 1500 1500 1501 1502 1504 1504 1505 1506 1508 1510 1512 1514 1515 1517 1518 1520 1522 1524 1526 1528 1531 1533 1535 1537 1539 1542 1544 1544 1546 1548 1551 1552 1554 1555 1556 1558 1559 1560 1561
1499 1498 1497 1497 1497 1497 1497 1499 1500 1501 1502 1503 1505 1506 1508 1509 1511 1513 1514 1516 1518 1520 1522 1524 1526 1529 1531 1533 1535 1537 1540 1541 1543 1544 1546 1548 1550 1552 1553 1555 1556 1557 1558
1496 1495 1495 1494 1494 1494 1494 1495 1496 1497 1498 1500 1500 1502 1504 1505 1507 1509 1510 1512 1514 1515 1517 1519 1522 1525 1527 1530 1532 1534 1536 1537 1539 1541 1542 1543 1546 1548 1550 1552 1553 1554 1555